INTELSAT 36 (IS-36)

Last updated on Nov. 13, 2019, 4:20 a.m. UTC

1 41747U 16053A   19316.92056405 -.00000011  00000-0  00000+0 0  9991
2 41747   0.0133 314.9817 0002339  49.2405  87.4464  1.00272407 11813
UTC
Height (km)
Latitude
Longitude
Inclination
Orbital Period
UTC large
Height (km)
Speed (km/s)
/
Latitude / Longitude
Inclination (degrees)
Orbital Period (minutes)
Azimuth
Elevation
Range (km)
Doppler Factor
iOS Compass Heading
iOS Angle

Next 30 passes for location: Hong Kong

Rise time Rise Azimuth (degrees) Set time Set Azimuth (degrees) Duration Max altitude (degrees)

No matching passes for this satellites